BDR004 LYTV-LQSA

Flight info

Callsign BDR004
Flight time 0h 46m
Altitude 22000
Route NIK DCT GACMO DCT KEB
Aircraft B738/M-SDE2E3FGHIRWXY/LB1

Departure

Time 2026-04-22 02:05
Airport Tivat Airport (LYTV)

Arrival

Time 2026-04-22 02:51
Airport Sarajevo International Airport (LQSA)
Time Latitude Longitude Altitude Speed Heading
2026-04-22 01:48 42.41170 18.71742 20 ft 0 kts 270°
2026-04-22 02:00 42.41170 18.71740 20 ft 1 kts 267°
2026-04-22 02:00 42.41168 18.71736 20 ft 1 kts 236°
2026-04-22 02:00 42.41162 18.71733 20 ft 1 kts 197°
2026-04-22 02:00 42.41111 18.71755 21 ft 11 kts 146°
2026-04-22 02:01 42.41045 18.71825 23 ft 13 kts 140°
2026-04-22 02:01 42.40981 18.71829 24 ft 8 kts 219°
2026-04-22 02:01 42.40919 18.71808 22 ft 11 kts 161°
2026-04-22 02:01 42.40821 18.71911 20 ft 27 kts 140°
2026-04-22 02:02 42.40667 18.72091 20 ft 28 kts 139°
2026-04-22 02:02 42.40530 18.72252 22 ft 26 kts 139°
2026-04-22 02:02 42.40389 18.72416 23 ft 27 kts 139°
2026-04-22 02:02 42.40246 18.72584 24 ft 28 kts 139°
2026-04-22 02:03 42.40096 18.72760 27 ft 29 kts 139°
2026-04-22 02:03 42.39952 18.72929 25 ft 27 kts 140°
2026-04-22 02:03 42.39828 18.73074 24 ft 21 kts 140°
2026-04-22 02:03 42.39716 18.73204 26 ft 21 kts 140°
2026-04-22 02:04 42.39634 18.73302 26 ft 4 kts 344°
2026-04-22 02:04 42.39726 18.73194 28 ft 49 kts 319°
2026-04-22 02:04 42.40195 18.72644 25 ft 126 kts 319°
2026-04-22 02:05 42.40988 18.71699 278 ft 160 kts 319°
2026-04-22 02:05 42.41852 18.70655 983 ft 174 kts 317°
2026-04-22 02:05 42.42534 18.69282 1750 ft 184 kts 286°
2026-04-22 02:05 42.42499 18.67496 2143 ft 208 kts 248°
2026-04-22 02:06 42.41466 18.65972 2384 ft 237 kts 206°
2026-04-22 02:06 42.39981 18.65010 2835 ft 237 kts 212°
2026-04-22 02:06 42.38627 18.63764 2931 ft 234 kts 215°
2026-04-22 02:06 42.37285 18.62505 2986 ft 235 kts 214°
2026-04-22 02:07 42.35937 18.61254 2989 ft 235 kts 214°
2026-04-22 02:07 42.34585 18.60011 3007 ft 235 kts 214°
2026-04-22 02:07 42.33184 18.58876 2986 ft 235 kts 198°
2026-04-22 02:07 42.31583 18.58664 2996 ft 233 kts 173°
2026-04-22 02:08 42.29983 18.58882 3005 ft 235 kts 173°
2026-04-22 02:08 42.28359 18.59112 2992 ft 235 kts 173°
2026-04-22 02:08 42.26733 18.59393 2992 ft 238 kts 165°
2026-04-22 02:08 42.25301 18.60459 2979 ft 237 kts 132°
2026-04-22 02:09 42.24498 18.62364 2982 ft 236 kts 102°
2026-04-22 02:09 42.24462 18.64559 2989 ft 236 kts 76°
2026-04-22 02:09 42.24912 18.66687 3001 ft 237 kts 71°
2026-04-22 02:09 42.25407 18.68804 2995 ft 236 kts 71°
2026-04-22 02:10 42.25917 18.70913 2997 ft 236 kts 70°
2026-04-22 02:10 42.26436 18.73016 2997 ft 236 kts 70°
2026-04-22 02:10 42.26959 18.75117 2980 ft 236 kts 70°
2026-04-22 02:10 42.27488 18.77220 2979 ft 237 kts 70°
2026-04-22 02:11 42.28327 18.79169 2944 ft 246 kts 41°
2026-04-22 02:11 42.29810 18.80275 2978 ft 248 kts 15°
2026-04-22 02:11 42.31512 18.80766 2984 ft 252 kts 12°
2026-04-22 02:11 42.33213 18.81223 2983 ft 243 kts 11°
2026-04-22 02:12 42.34388 18.81547 4244 ft 283 kts 12°
2026-04-22 02:12 42.36243 18.82030 4808 ft 267 kts 11°
2026-04-22 02:12 42.38051 18.82486 6060 ft 259 kts 10°
2026-04-22 02:12 42.39833 18.82932 6941 ft 264 kts
2026-04-22 02:13 42.41665 18.83391 7672 ft 270 kts
2026-04-22 02:13 42.43529 18.83854 8494 ft 275 kts
2026-04-22 02:13 42.45430 18.84327 9290 ft 280 kts
2026-04-22 02:13 42.47352 18.84808 10080 ft 282 kts
2026-04-22 02:14 42.49331 18.85302 10546 ft 298 kts
2026-04-22 02:14 42.51426 18.85826 10962 ft 313 kts
2026-04-22 02:14 42.53610 18.86374 11541 ft 322 kts
2026-04-22 02:14 42.55814 18.86925 12394 ft 323 kts
2026-04-22 02:15 42.58034 18.87498 13238 ft 325 kts
2026-04-22 02:15 42.60261 18.88052 13861 ft 325 kts
2026-04-22 02:15 42.62484 18.88604 13993 ft 324 kts
2026-04-22 02:15 42.64698 18.89153 14024 ft 323 kts
2026-04-22 02:16 42.66907 18.89698 14004 ft 323 kts
2026-04-22 02:16 42.69113 18.90261 14002 ft 323 kts
2026-04-22 02:16 42.71323 18.90821 14001 ft 323 kts
2026-04-22 02:16 42.73509 18.91562 14006 ft 326 kts 11°
2026-04-22 02:17 42.75713 18.92086 13991 ft 316 kts 353°
2026-04-22 02:17 42.77810 18.91473 14006 ft 306 kts 332°
2026-04-22 02:17 42.79643 18.90043 14021 ft 303 kts 323°
2026-04-22 02:17 42.81379 18.88487 14024 ft 303 kts 322°
2026-04-22 02:18 42.83113 18.86862 14024 ft 302 kts 321°
2026-04-22 02:18 42.84830 18.85210 14031 ft 302 kts 321°
2026-04-22 02:18 42.86540 18.83541 14026 ft 302 kts 321°
2026-04-22 02:18 42.88248 18.81859 14036 ft 303 kts 321°
2026-04-22 02:19 42.89948 18.80174 14023 ft 302 kts 321°
2026-04-22 02:19 42.91647 18.78483 14030 ft 302 kts 321°
2026-04-22 02:19 42.93346 18.76789 14032 ft 302 kts 321°
2026-04-22 02:19 42.95039 18.75100 14031 ft 301 kts 321°
2026-04-22 02:20 42.96730 18.73410 14034 ft 301 kts 321°
2026-04-22 02:20 42.98418 18.71723 14046 ft 301 kts 321°
2026-04-22 02:20 43.00108 18.70031 14025 ft 301 kts 321°
2026-04-22 02:20 43.01796 18.68341 14048 ft 301 kts 321°
2026-04-22 02:21 43.03483 18.66651 14036 ft 301 kts 321°
2026-04-22 02:21 43.05169 18.64960 14038 ft 301 kts 321°
2026-04-22 02:21 43.06855 18.63269 14035 ft 301 kts 321°
2026-04-22 02:21 43.08543 18.61573 14055 ft 300 kts 321°
2026-04-22 02:22 43.10224 18.59884 14051 ft 300 kts 321°
2026-04-22 02:22 43.11908 18.58191 14044 ft 300 kts 321°
2026-04-22 02:22 43.13618 18.56549 14030 ft 302 kts 329°
2026-04-22 02:22 43.15629 18.55710 14037 ft 308 kts 349°
2026-04-22 02:23 43.17765 18.55393 14050 ft 309 kts 349°
2026-04-22 02:23 43.19905 18.55074 14044 ft 309 kts 349°
2026-04-22 02:23 43.22044 18.54769 14057 ft 310 kts 350°
2026-04-22 02:23 43.24189 18.54471 14051 ft 309 kts 350°
2026-04-22 02:24 43.26330 18.54177 14056 ft 309 kts 350°
2026-04-22 02:24 43.28471 18.53886 14058 ft 309 kts 350°
2026-04-22 02:24 43.30616 18.53594 14058 ft 310 kts 350°
2026-04-22 02:24 43.32731 18.53307 14060 ft 310 kts 350°
2026-04-22 02:25 43.34870 18.53016 14077 ft 309 kts 350°
2026-04-22 02:25 43.37014 18.52724 14056 ft 309 kts 350°
2026-04-22 02:25 43.39160 18.52432 14067 ft 310 kts 350°
2026-04-22 02:25 43.41301 18.52140 14072 ft 310 kts 350°
2026-04-22 02:26 43.43449 18.51848 14076 ft 310 kts 350°
2026-04-22 02:26 43.45591 18.51555 14065 ft 309 kts 350°
2026-04-22 02:26 43.47735 18.51263 14088 ft 309 kts 350°
2026-04-22 02:26 43.49878 18.50970 14081 ft 310 kts 350°
2026-04-22 02:27 43.52023 18.50677 14078 ft 310 kts 350°
2026-04-22 02:27 43.54165 18.50384 14079 ft 310 kts 350°
2026-04-22 02:27 43.56315 18.50090 14086 ft 310 kts 350°
2026-04-22 02:27 43.58462 18.49796 14084 ft 310 kts 350°
2026-04-22 02:28 43.60608 18.49502 14090 ft 309 kts 350°
2026-04-22 02:28 43.62747 18.49208 14086 ft 308 kts 350°
2026-04-22 02:28 43.64881 18.48916 14105 ft 308 kts 350°
2026-04-22 02:28 43.67015 18.48622 14097 ft 308 kts 350°
2026-04-22 02:29 43.69152 18.48328 14067 ft 310 kts 351°
2026-04-22 02:29 43.71298 18.48034 14092 ft 310 kts 351°
2026-04-22 02:29 43.73450 18.47737 14128 ft 310 kts 351°
2026-04-22 02:29 43.75597 18.47442 14106 ft 310 kts 351°
2026-04-22 02:30 43.77742 18.47146 14100 ft 310 kts 351°
2026-04-22 02:30 43.79887 18.46850 14107 ft 310 kts 351°
2026-04-22 02:30 43.82031 18.46554 14093 ft 310 kts 351°
2026-04-22 02:30 43.84175 18.46258 14107 ft 310 kts 351°
2026-04-22 02:31 43.86322 18.45961 14112 ft 310 kts 351°
2026-04-22 02:31 43.88468 18.45664 14107 ft 311 kts 351°
2026-04-22 02:31 43.90622 18.45366 14095 ft 312 kts 351°
2026-04-22 02:31 43.92722 18.44764 14039 ft 305 kts 334°
2026-04-22 02:32 43.94433 18.43128 13730 ft 298 kts 313°
2026-04-22 02:32 43.95798 18.41039 13364 ft 287 kts 311°
2026-04-22 02:32 43.97109 18.39029 13056 ft 275 kts 311°
2026-04-22 02:32 43.98347 18.37116 12748 ft 265 kts 311°
2026-04-22 02:33 43.99564 18.35228 12460 ft 253 kts 311°
2026-04-22 02:33 44.00701 18.33462 12180 ft 244 kts 311°
2026-04-22 02:33 44.01819 18.31723 11915 ft 243 kts 311°
2026-04-22 02:33 44.02974 18.29932 11686 ft 253 kts 311°
2026-04-22 02:34 44.04160 18.28091 11420 ft 258 kts 312°
2026-04-22 02:34 44.05359 18.26225 11106 ft 260 kts 312°
2026-04-22 02:34 44.06576 18.24340 10748 ft 263 kts 313°
2026-04-22 02:34 44.07820 18.22466 10406 ft 264 kts 313°
2026-04-22 02:35 44.09065 18.20591 10065 ft 264 kts 313°
2026-04-22 02:35 44.10311 18.18710 9703 ft 264 kts 313°
2026-04-22 02:35 44.11497 18.16761 9346 ft 265 kts 301°
2026-04-22 02:35 44.11939 18.14304 8950 ft 267 kts 266°
2026-04-22 02:36 44.11338 18.11889 8630 ft 267 kts 236°
2026-04-22 02:36 44.10004 18.10131 8355 ft 265 kts 209°
2026-04-22 02:36 44.08381 18.08964 8107 ft 261 kts 210°
2026-04-22 02:36 44.06793 18.07752 7827 ft 260 kts 207°
2026-04-22 02:37 44.05164 18.06663 7522 ft 259 kts 204°
2026-04-22 02:37 44.03497 18.05737 7241 ft 257 kts 199°
2026-04-22 02:37 44.01800 18.04965 6952 ft 256 kts 196°
2026-04-22 02:37 44.00082 18.04341 6684 ft 253 kts 192°
2026-04-22 02:38 43.98378 18.03869 6549 ft 245 kts 188°
2026-04-22 02:38 43.96725 18.03545 6466 ft 234 kts 185°
2026-04-22 02:38 43.95151 18.03559 6347 ft 221 kts 165°
2026-04-22 02:38 43.93805 18.04451 6151 ft 211 kts 138°
2026-04-22 02:39 43.92815 18.05871 5956 ft 202 kts 122°
2026-04-22 02:39 43.92085 18.07495 5738 ft 192 kts 116°
2026-04-22 02:39 43.91458 18.09085 5488 ft 185 kts 115°
2026-04-22 02:39 43.90869 18.10644 5173 ft 181 kts 115°
2026-04-22 02:40 43.90288 18.12189 4856 ft 180 kts 115°
2026-04-22 02:40 43.89712 18.13737 4534 ft 181 kts 115°
2026-04-22 02:40 43.89136 18.15280 4314 ft 177 kts 116°
2026-04-22 02:40 43.88577 18.16770 4139 ft 169 kts 117°
2026-04-22 02:41 43.88048 18.18190 3961 ft 163 kts 117°
2026-04-22 02:41 43.87530 18.19577 3748 ft 161 kts 117°
2026-04-22 02:41 43.87018 18.20946 3562 ft 160 kts 116°
2026-04-22 02:41 43.86511 18.22306 3359 ft 158 kts 116°
2026-04-22 02:42 43.86007 18.23651 3153 ft 157 kts 115°
2026-04-22 02:42 43.85510 18.24985 2944 ft 155 kts 115°
2026-04-22 02:42 43.85026 18.26287 2672 ft 150 kts 115°
2026-04-22 02:42 43.84551 18.27583 2410 ft 152 kts 116°
2026-04-22 02:43 43.84065 18.28868 2184 ft 152 kts 117°
2026-04-22 02:43 43.83575 18.30173 1953 ft 154 kts 116°
2026-04-22 02:43 43.83081 18.31487 1740 ft 153 kts 116°
2026-04-22 02:43 43.82614 18.32732 1677 ft 135 kts 117°
2026-04-22 02:44 43.82128 18.34023 2051 ft 160 kts 116°
2026-04-22 02:44 43.81630 18.35402 2497 ft 159 kts 115°
2026-04-22 02:44 43.81191 18.36766 2752 ft 156 kts 104°
2026-04-22 02:44 43.81205 18.38296 3304 ft 165 kts 62°
2026-04-22 02:45 43.82074 18.39318 3838 ft 171 kts 21°
2026-04-22 02:45 43.83186 18.39897 4009 ft 172 kts 18°
2026-04-22 02:45 43.84402 18.40137 3969 ft 180 kts 351°
2026-04-22 02:45 43.85507 18.39449 4083 ft 175 kts 318°
2026-04-22 02:46 43.86236 18.38097 4020 ft 176 kts 300°
2026-04-22 02:46 43.86827 18.36608 4036 ft 176 kts 298°
2026-04-22 02:46 43.87417 18.35109 4067 ft 178 kts 299°
2026-04-22 02:46 43.88053 18.33598 4068 ft 186 kts 300°
2026-04-22 02:47 43.88643 18.32032 4286 ft 180 kts 296°
2026-04-22 02:47 43.89179 18.30480 4165 ft 179 kts 294°
2026-04-22 02:47 43.89699 18.28899 4022 ft 177 kts 294°
2026-04-22 02:47 43.90068 18.27375 3790 ft 160 kts 278°
2026-04-22 02:48 43.89978 18.25782 3667 ft 180 kts 252°
2026-04-22 02:48 43.89305 18.24294 3895 ft 185 kts 229°
2026-04-22 02:48 43.88338 18.23199 3942 ft 178 kts 211°
2026-04-22 02:48 43.87249 18.22395 3916 ft 178 kts 202°
2026-04-22 02:49 43.86055 18.22282 3628 ft 171 kts 161°
2026-04-22 02:49 43.85211 18.23229 3421 ft 152 kts 114°
2026-04-22 02:49 43.84987 18.24658 3109 ft 149 kts 94°
2026-04-22 02:49 43.84828 18.26046 2751 ft 144 kts 100°
2026-04-22 02:50 43.84531 18.27391 2466 ft 148 kts 110°
2026-04-22 02:50 43.84268 18.28272 2279 ft 152 kts 113°
2026-04-22 02:50 43.83787 18.29596 2056 ft 154 kts 116°
2026-04-22 02:50 43.83139 18.31320 1775 ft 155 kts 117°
2026-04-22 02:51 43.82666 18.32601 1670 ft 139 kts 118°
2026-04-22 02:51 43.82303 18.33563 1683 ft 80 kts 117°
2026-04-22 02:51 43.82139 18.34001 1697 ft 28 kts 117°
2026-04-22 02:51 43.82038 18.34274 1699 ft 34 kts 116°
2026-04-22 02:52 43.81972 18.34450 1706 ft 22 kts 118°
2026-04-22 02:52 43.81945 18.34563 1708 ft 7 kts 69°
2026-04-22 02:52 43.81975 18.34605 1709 ft 6 kts 29°
2026-04-22 02:52 43.82005 18.34625 1710 ft 2 kts
2026-04-22 02:53 43.82043 18.34621 1710 ft 10 kts 348°
2026-04-22 02:53 43.82118 18.34534 1707 ft 16 kts 297°
2026-04-22 02:53 43.82180 18.34372 1702 ft 21 kts 298°
2026-04-22 02:53 43.82237 18.34215 1700 ft 19 kts 297°
2026-04-22 02:54 43.82303 18.34041 1695 ft 22 kts 297°
2026-04-22 02:54 43.82377 18.33843 1693 ft 24 kts 297°
2026-04-22 02:54 43.82424 18.33713 1689 ft 7 kts 298°
2026-04-22 02:54 43.82449 18.33653 1691 ft 5 kts 316°
2026-04-22 02:55 43.82465 18.33653 1686 ft 3 kts 11°
2026-04-22 02:55 43.82497 18.33673 1694 ft 6 kts 25°
2026-04-22 02:55 43.82505 18.33678 1691 ft 0 kts 24°